COSMOS 1821

Satellite information

Favourite Embed

Satellite Type and Status

PAYLOADIN ORBIT

Key statistics

Satellite COSMOS 1821 at a glance.

Uptime

14139

Days in orbit

Revolutions

≈ 13.7

Per day

Orbit

LEO

Low Earth Orbit

Inclination

82.9

Latest

Satellite identification and parameters

Extended collection of information and parameters for COSMOS 1821.

Object identification

Identified? True

Debris? False

Object name: COSMOS 1821

International designator: 1987-017A

Object number (NORAD): 17525

Object ID (CCSDS): 17525

Country: COMMONWEALTH OF INDEPENDENT STATES (CIS)

Current information (Y/N): Y

RCS size: LARGE

Orbital parameters

Period: 104.809 minutes

Inclination: 82.9126 deg

SMA: 7363.65 km

Apoapsis: 1012.005 km

Periapsis: 959.026 km

RAAN: 336.269 deg

Eccentricy: 0.0035973

Argument of periapsis: 216.6258 deg

Mean anomaly: 297.8451 deg

Mean motion: 13.73925008 rev/day

Mean motion (dot): 0.00000093 rev/day2

B* drag term: 0.000082612 1/REarth

Two-line elements (TLE)

Creation date: Nov. 2, 2025, 3:56 p.m.

Reference frame: TEME

Reference center: EARTH

Epoch: Nov. 2, 2025, 12:23 p.m. UTC

TLE line 0: 0 COSMOS 1821

TLE line 1: 1 17525U 87017A 25306.51629792 .00000093 00000-0 82612-4 0 9995

TLE line 2: 2 17525 82.9126 336.2690 0035973 216.6258 297.8451 13.73925008924094

Live tracking on map

Real-time ground track for satellite COSMOS 1821.

In-orbit conjunctions

A list of the most updated potential collisions computed for object COSMOS 1821.

Target Orbit TCA Probability of collision Miss distance Type
PEGASUS DEB LEO 2025-09-02 21:40:08 0.0001510056 826.0 (m) DEBRIS
DELTA 1 DEB SSO 2024-07-24 15:04:40 0.0001911771 997.0 (m) DEBRIS

Associated space launch

Navigation satellite providing location information for the Tsiklon-B navigation system

COSMOS 1821 was lifted into orbit during the mission ‘Kosmos-3M | Parus 58’, on board a Kosmos-3M space rocket.

The launch took place on Feb. 18, 1987, 1:53 p.m. from 132/2.

For more information about the launch, click the button.

Launch to space Kosmos-3M | Parus 58
Kosmos-3M | Parus 58

Agency: N/A

Status: Launch Successful

Launch date: Feb. 18, 1987, 1:53 p.m. UTC

Rocket: Kosmos-3M

Launch pad: 132/2

Location: Plesetsk Cosmodrome, Russian Federation

...

Latest news about this satellite

There are no fresh news available about this satellite. Check back as we update our databases every day.


Newsletter sign-up

Weekly statistics, charts and insights to help you stay on top of the space industry.